This demonstration page uses our WeatherBlox Daily Observations layout. Learn more.

Left ArrowRight Arrow

Hourly Observations for March 12, 2022

Temp ( °F °C ) Dew Point ( °F °C ) Humidity (%) Winds ( mph kmh ) Pressure ( in mb ) Visibility ( mi km ) Precip ( " mm )
12:53 am 00:53 Clear 23 -5 9 -12.8 55 55 NNW 3 6 30.42 1030 10 16 0.00 0.00
1:53 am 01:53 Clear 22 -5.6 10 -12.2 60 60 N 3 6 30.44 1031 10 16 0.00 0.00
2:53 am 02:53 Clear 21 -6.1 9 -12.8 59 59 N 6 9 30.42 1030 10 16 0.00 0.00
3:53 am 03:53 Clear 19 -7.2 7 -13.9 59 59 N 6 9 30.40 1030 10 16 0.00 0.00
4:53 am 04:53 Clear 18 -7.8 7 -13.9 62 62 N 3 6 30.41 1030 10 16 0.00 0.00
5:53 am 05:53 Clear 17 -8.3 6 -14.4 62 62 N 7 11 30.43 1031 10 16 0.00 0.00
6:53 am 06:53 Clear 16 -8.9 5 -15 62 62 N 6 9 30.45 1031 10 16 0.00 0.00
7:53 am 07:53 Sunny 20 -6.7 7 -13.9 57 57 Calm 30.46 1031 10 16 0.00 0.00
8:53 am 08:53 Sunny 31 -0.6 15 -9.4 52 52 SSE 5 7 30.45 1031 10 16 0.00 0.00
9:53 am 09:53 Sunny 40 4.4 18 -7.8 41 41 SSE 14 22 30.45 1031 10 16 0.00 0.00
10:53 am 10:53 Sunny 44 6.7 17 -8.3 34 34 S 13 20 30.43 1031 10 16 0.00 0.00
11:53 am 11:53 Sunny 48 8.9 13 -10.6 24 24 SSE 13 20 30.40 1030 10 16 0.00 0.00
12:53 pm 12:53 Sunny 52 11.1 11 -11.7 19 19 S 14 22 30.36 1028 10 16 0.00 0.00
1:53 pm 13:53 Sunny 57 13.9 5 -15 12 12 SSE 16 26 30.29 1026 10 16 0.00 0.00
2:53 pm 14:53 Sunny 60 15.6 1 -17.2 9 9 S 13 20 30.23 1024 10 16 0.00 0.00
3:53 pm 15:53 Sunny 62 16.7 0 -17.8 8 8 S 14 22 30.19 1022 10 16 0.00 0.00
4:53 pm 16:53 Sunny 62 16.7 -3 -19.4 7 7 S 12 19 30.16 1022 10 16 0.00 0.00
5:53 pm 17:53 Sunny 62 16.7 -4 -20 7 7 S 14 22 30.15 1021 10 16 0.00 0.00
6:53 pm 18:53 Sunny 58 14.4 -5 -20.6 7 7 SSE 9 15 30.16 1021 10 16 0.00 0.00
7:53 pm 19:53 Clear 53 11.7 0 -17.8 11 11 SE 13 20 30.16 1021 10 16 0.00 0.00
8:53 pm 20:53 Clear 49 9.4 3 -16.1 15 15 SE 13 20 30.16 1021 10 16 0.00 0.00
9:53 pm 21:53 Clear 46 7.8 7 -13.9 20 20 SSE 15 24 30.15 1021 10 16 0.00 0.00
10:53 pm 22:53 Clear 45 7.2 9 -12.8 23 23 SSE 14 22 30.15 1021 10 16 0.00 0.00
11:53 pm 23:53 Clear 42 5.6 7 -13.9 23 23 SSE 14 22 30.14 1021 10 16 0.00 0.00

Powered by AerisWeather